This is the latest recevied weather packets stored in our database for station/object WC4PEM-10. If no packets are shown the sender has not sent any weather packets the latest 1 day(s).
| Time | Temp. | Humidity | Pressure | Rain* | Wind** | Luminosity | Snow |
|---|---|---|---|---|---|---|---|
| 1778026587 | 25° C | 65% | 1014.4 hPa | 0 mm | 4.47 m/s, 118° | - | - |
| 1778026310 | 25.56° C | 64% | 1014.4 hPa | 0 mm | 5.36 m/s, 115° | - | - |
| 1778026287 | 25° C | 65% | 1014.3 hPa | 0 mm | 4.92 m/s, 108° | - | - |
| 1778025987 | 25.56° C | 64% | 1014.4 hPa | 0 mm | 5.36 m/s, 115° | - | - |
| 1778025687 | 25.56° C | 64% | 1014.2 hPa | 0 mm | 5.36 m/s, 99° | - | - |
| 1778025471 | 26.11° C | 62% | 1014 hPa | 0 mm | 4.92 m/s, 115° | - | - |
| 1778025387 | 26.11° C | 63% | 1014.1 hPa | 0 mm | 5.36 m/s, 93° | - | - |
| 1778025269 | 26.11° C | 62% | 1014 hPa | 0 mm | 4.92 m/s, 115° | - | - |
| 1778025087 | 26.11° C | 62% | 1014 hPa | 0 mm | 4.92 m/s, 115° | - | - |
| 1778024967 | 26.67° C | 61% | 1013.9 hPa | 0 mm | 4.92 m/s, 99° | - | - |
| 1778024927 | 26.67° C | 61% | 1013.9 hPa | 0 mm | 4.92 m/s, 99° | - | - |
| 1778024787 | 26.67° C | 61% | 1013.9 hPa | 0 mm | 4.92 m/s, 99° | - | - |
| 1778024732 | 26.67° C | 60% | 1013.9 hPa | 0 mm | 4.92 m/s, 117° | - | - |
| 1778024487 | 26.67° C | 60% | 1013.9 hPa | 0 mm | 4.92 m/s, 117° | - | - |
| 1778024431 | 27.22° C | 59% | 1013.8 hPa | 0 mm | 4.47 m/s, 128° | - | - |
| 1778024396 | 27.22° C | 59% | 1013.8 hPa | 0 mm | 4.47 m/s, 128° | - | - |
| 1778024187 | 27.22° C | 59% | 1013.8 hPa | 0 mm | 4.47 m/s, 128° | - | - |
| 1778024100 | 27.22° C | 59% | 1013.8 hPa | 0 mm | 4.02 m/s, 85° | - | - |
| 1778023887 | 27.22° C | 59% | 1013.8 hPa | 0 mm | 4.02 m/s, 85° | - | - |
| 1778023722 | 27.78° C | 57% | 1013.8 hPa | 0 mm | 3.58 m/s, 80° | - | - |
| 1778023587 | 27.78° C | 57% | 1013.8 hPa | 0 mm | 3.58 m/s, 80° | - | - |
| 1778023503 | 27.78° C | 57% | 1013.8 hPa | 0 mm | 3.58 m/s, 102° | - | - |
| 1778023287 | 27.78° C | 57% | 1013.8 hPa | 0 mm | 3.58 m/s, 102° | - | - |
| 1778023204 | 27.78° C | 57% | 1013.8 hPa | 0 mm | 4.47 m/s, 105° | - | - |
| 1778023142 | 27.78° C | 57% | 1013.8 hPa | 0 mm | 4.47 m/s, 105° | - | - |
* Rain latest hour (hover to see other rain measurements)
** Current wind speed in m/s (hover to see current wind gust speed)